Other Surface Observations
Issued by NWS Tucson, AZ

Home | Current Version | Previous Version | Text Only | Print | Product List | Glossary On
Versions: 1 2 3 4 5 6 7 8 9 10 11 12 13 14 15 16 17 18 19 20 21 22 23 24 25 26 27 28 29 30 31 32 33 34 35 36 37 38 39 40 41 42 43 44 45 46 47 48 49 50
000
SXUS55 KTWC 052015
OSOTWC

WEATHER ROUNDUP FOR SOUTHEAST ARIZONA
NATIONAL WEATHER SERVICE TUCSON AZ
115 PM MST THU MAR 05 2015

AZZ504>506-514-052115-
LOCATION       SKY/WX    TMP DP  RH WIND       PRES   REMARKS
TUCSON         SUNNY     67  22  18 MISG      30.24F
DAVIS-MONTHAN  SUNNY     66  22  18 E9G18     30.22F
CHILDRENS PARK N/A       63  28  26 NW5               PIMA CO DEQ
ALVERNON/22ND  N/A      N/A N/A N/A N/A               PIMA CO DEQ
CHERRY/GLENN   N/A      N/A N/A N/A N/A               PIMA CO DEQ
TANGERINE      N/A       62 N/A N/A W4                PIMA CO DEQ
CONTL RANCH    N/A       64  30  28 NW4               PIMA CO DEQ
GRANT/1ST      N/A       65  23  20 NE2               PIMA CO DEQ
CRAYCROFT/22ND N/A      N/A N/A N/A N/A               PIMA CO DEQ
GOLFLINKS/KOLB N/A       63  21  20 NE9               PIMA CO DEQ
AJO/12TH       N/A       64  21  19 E5                PIMA CO DEQ
SAGUARO EAST   N/A      N/A N/A N/A N/A               PIMA CO DEQ
FAIRGROUNDS    N/A       62 N/A N/A SE14              PIMA CO DEQ
SAGUARO        N/A       67  18  15 E11G18            *SABINO CYN
SAN CARLOS     N/A       61  22  22 E5G14             *SAN CARLOS
GREEN VALLEY   N/A       63  24  22 NE12              PIMA CO DEQ
HORSE CAMP CYN N/A       55  23  29 E11G20            *ARAVAIPA CYN
RINCON MTNS    N/A       37  15  40 E11G22            *NR MANNING CAMP
$$

AZZ509>511-052115-
LOCATION       SKY/WX    TMP DP  RH WIND       PRES   REMARKS
SAFFORD        SUNNY     59  17  19 SE12G20   30.30F
STRAY HORSE    N/A       47   3  16 SE6G10            *
TRAIL CABIN    N/A       50   8  18 E6G12             *N OF GRANVILLE
BLACK HILLS    N/A       60  22  23 SE11G20           *N OF FT THOMAS
DRY LAKE       N/A       48   3  15 S6G10             *NATANES MTNS
NOON CREEK     NOT AVBL
COLUMBINE      N/A       51 -14   6 E2                *PINALENO MTNS
GUTHRIE        N/A       46  19  34 SE7G14            *SW OF GUTHRIE
$$

AZZ502-503-513-052115-
LOCATION       SKY/WX    TMP DP  RH WIND       PRES   REMARKS
NOGALES        SUNNY     65  24  21 VRB5      30.20F
SELLS          N/A       67  28  23 NE14G22           *
SASABE         N/A       64  25  23 NE12G18           *ALTAR VLY
HOPKINS        N/A       44  21  39 E18G30            *SANTA RITA MTNS
CARR CYN       N/A       54  27  35 E5G14             *W OF HEREFORD
$$

AZZ507-508-512-052115-
LOCATION       SKY/WX    TMP DP  RH WIND       PRES   REMARKS
SIERRA VISTA   SUNNY     57  21  24 E17G23    30.26F
DOUGLAS        SUNNY     58  29  33 E17G28    30.27F
EMPIRE MTNS    N/A       58  22  25 E12G23            *LAS CIENEGAS NCA
MULESHOE RANCH N/A       54  20  26 E12G26            *PRESERVE
HEADQUARTERS   N/A       50  25  37 E12G21            *CHIRICAHUA MTNS
$$

.............................NOTES.............................
THIS IS AN AUTOMATED COLLECTIVE WITH MINIMAL QUALITY CONTROL.
PIMA CO DEQ SITES HAVE NONSTANDARD WIND SENSOR HEIGHTS.
PIMA CO DEQ SITES DO NOT REPORT WIND GUSTS.
* INDICATES WIND SENSORS LOCATED AT 20 FEET INSTEAD OF 33 FEET.
..............................KEY..............................
SKY/WX - SKY CONDITION/WEATHER
TMP    - TEMPERATURE IN FAHRENHEIT
DP     - DEWPOINT IN FAHRENHEIT
RH     - RELATIVE HUMIDITY IN PERCENT
WIND   - DIRECTION AND SPEED IN MILES PER HOUR (MPH)
VRB    - VARIABLE WIND DIRECTION
PRES   - MEAN SEA LEVEL PRESSURE IN INCHES OF MERCURY
         F - FALLING PRESSURE   R - RISING PRESSURE
         S - STEADY PRESSURE
VSB    - VISIBILITY IN MILES
HX     - HEAT INDEX IN FAHRENHEIT
WCI    - WIND CHILL INDEX IN FAHRENHEIT
N/A    - NOT AVAILABLE
AFB    - AIR FORCE BASE
         DAVIS-MONTHAN IS DAVIS-MONTHAN AIR FORCE BASE
CYN    - CANYON
MTNS   - MOUNTAINS
NCA    - NATIONAL CONSERVATION AREA
NR     - NEAR
VLY    - VALLEY
CONTL  - CONTINENTAL
PIMA CO DEQ - PIMA COUNTY DEPT OF ENVIRONMENTAL QUALITY



USA.gov is the U.S. government's official web portal to all federal, state and local government web resources and services.